South Lake Tahoe, CA

8:21 PM PDT on March 26, 2017 (GMT -0700)
Lake Tahoe

Weather History for KTVL - January, 2014

Change the Weather History Date:

Wednesday, January 22, 2014

  Actual Average Record
Temperature  
Mean Temperature 37 °F 30 °F  
Max Temperature 57 °F 43 °F 57 °F (2014)
Min Temperature 16 °F 16 °F -9 °F (1982)
Degree Days  
Heating Degree Days 28 35  
Month to date heating degree days 627 777  
Since 1 July heating degree days 3585 3960  
Cooling Degree Days 0 0  
Month to date cooling degree days 0 0  
Year to date cooling degree days 0 0  
Moisture  
Dew Point 16 °F    
Average Humidity 48    
Maximum Humidity 80    
Minimum Humidity 15    
Precipitation  
Precipitation 0.00 in - 2.62 in (1951)
Month to date precipitation 0.17  
Year to date precipitation 0.17  
Sea Level Pressure  
Sea Level Pressure 30.21 in    
Wind  
Wind Speed 2 mph (South)    
Max Wind Speed 8 mph    
Max Gust Speed 11 mph    
Visibility 10 miles    
Events      
T = Trace of Precipitation, MM = Missing Value Source: NWS Daily Summary

Daily Weather History Graph

Daily Weather History Graph

Search for Another Location

Airport or City:

Trip Planner

Search our weather history database for the weather conditions in past years. The results will help you decide how hot, cold, wet, or windy it might be!

Date:

Astronomy

Jan. 22, 2014 Rise Set
Actual Time 7:13 AM PST 5:10 PM PST
Civil Twilight 6:44 AM PST 5:38 PM PST
Nautical Twilight 6:12 AM PST 6:11 PM PST
Astronomical Twilight 5:40 AM PST 6:42 PM PST
Moon 11:43 PM PST (1/22) 10:21 AM PST (1/22)
Length of Visible Light 10h 53m
Length of Day
9h 56m
Waning Gibbous, 64% of the Moon is Illuminated
Jan 22
Waning Gibbous
Jan 23
Last Quarter
Jan 30
New
Feb 6
First Quarter
Feb 14
Full

Hourly Weather History & Observations

Time (PST) Temp. Windchill Dew Point Humidity Pressure Visibility Wind Dir Wind Speed Gust Speed Precip Events Conditions
12:53 AM 21.9 °F 17.2 °F 15.1 °F 75% 30.29 in 10.0 mi SSW 3.5 mph - N/A   Clear
1:53 AM 21.0 °F - 14.0 °F 74% 30.30 in 10.0 mi Calm Calm - N/A   Clear
2:53 AM 21.0 °F - 12.9 °F 71% 30.28 in 10.0 mi Calm Calm - N/A   Clear
3:53 AM 19.9 °F 13.4 °F 12.0 °F 71% 30.30 in 10.0 mi SSW 4.6 mph - N/A   Clear
4:53 AM 19.0 °F 13.9 °F 10.9 °F 71% 30.32 in 10.0 mi South 3.5 mph - N/A   Clear
5:53 AM 18.0 °F 12.7 °F 10.9 °F 74% 30.34 in 10.0 mi South 3.5 mph - N/A   Clear
6:53 AM 18.0 °F 12.7 °F 10.9 °F 74% 30.34 in 10.0 mi Variable 3.5 mph - N/A   Clear
7:53 AM 16.0 °F - 10.0 °F 77% 30.36 in 10.0 mi Calm Calm - N/A   Clear
8:53 AM 25.0 °F 20.7 °F 14.0 °F 63% 30.32 in 10.0 mi SSW 3.5 mph - N/A   Clear
9:53 AM 35.1 °F - 18.0 °F 50% 30.27 in 10.0 mi Calm Calm - N/A   Clear
10:53 AM 43.0 °F 40.3 °F 24.1 °F 47% 30.24 in 10.0 mi NE 4.6 mph - N/A   Clear
11:53 AM 46.9 °F - 18.0 °F 32% 30.19 in 10.0 mi South 3.5 mph - N/A   Clear
12:53 PM 53.1 °F - 21.9 °F 30% 30.13 in 10.0 mi NNE 6.9 mph - N/A   Clear
1:53 PM 55.0 °F - 8.1 °F 15% 30.11 in 10.0 mi Calm Calm - N/A   Clear
2:53 PM 55.9 °F - 9.0 °F 15% 30.08 in 10.0 mi NNE 3.5 mph - N/A   Clear
3:53 PM 50.0 °F - 17.1 °F 27% 30.10 in 10.0 mi Calm Calm - N/A   Clear
4:53 PM 42.1 °F 40.2 °F 27.0 °F 55% 30.14 in 10.0 mi NNE 3.5 mph - N/A   Clear
5:53 PM 35.1 °F - 27.0 °F 72% 30.17 in 10.0 mi Calm Calm - N/A   Clear
6:53 PM 32.0 °F 27.5 °F 21.0 °F 64% 30.18 in 10.0 mi South 4.6 mph - N/A   Clear
7:53 PM 30.0 °F - 19.9 °F 66% 30.19 in 10.0 mi Calm Calm - N/A   Clear
8:53 PM 28.9 °F - 19.0 °F 67% 30.16 in 10.0 mi Calm Calm - N/A   Clear
9:53 PM 27.0 °F - 18.0 °F 69% 30.12 in 10.0 mi Calm Calm - N/A   Clear
10:53 PM 26.1 °F - 18.0 °F 71% 30.09 in 10.0 mi Calm Calm - N/A   Clear
11:53 PM 24.1 °F 17.0 °F 16.0 °F 71% 30.07 in 10.0 mi SSW 5.8 mph - N/A   Clear